Regional Weather Roundup
Issued by NWS

Home | Current Version | Previous Version | Text Only | Print | Product List | Glossary On
Versions: 1 2 3 4 5 6 7 8 9 10 11 12 13 14 15 16 17 18 19 20 21 22 23 24 25 26 27 28 29 30 31 32 33 34 35 36 37 38 39 40 41 42 43 44 45 46 47 48 49 50
000
ASUS44 KOUN 261210
RWROK

WEATHER ROUNDUP FOR OKLAHOMA
NATIONAL WEATHER SERVICE NORMAN OK
600 AM CST MON JAN 26 2015

NOTE: "FAIR" INDICATES FEW OR NO CLOUDS BELOW 12,000 FEET WITH NO
      SIGNIFICANT WEATHER AND/OR OBSTRUCTIONS TO VISIBILITY.

OKZ001>007-009>012-014-015-017-261300-
NORTHWEST OKLAHOMA AND THE PANHANDLE

CITY           SKY/WX    TMP DP  RH WIND       PRES   REMARKS
GAGE           CLEAR     34  30  85 W12       30.13S WCI  25
6HR MIN TEMP:  26; 6HR MAX TEMP:  34;

$$

OKZ016-021>023-033>039-044-045-261300-
SOUTHWEST OKLAHOMA

CITY           SKY/WX    TMP DP  RH WIND       PRES   REMARKS
LAWTON/REGL    CLEAR     28  24  85 CALM      30.17S
6HR MIN TEMP:  27; 6HR MAX TEMP:  35;

LAWTON/FT SILL CLEAR     34  26  71 CALM      30.15F
FREDERICK      CLEAR     36  31  82 W7        30.15F WCI  30
CLINTON        CLEAR     36  29  75 SW7       30.14F WCI  30
HOBART         CLEAR     31  28  89 W7        30.15F WCI  24
ALTUS AFB      CLEAR     35  31  85 NW1       30.17S
$$

OKZ018>020-024>031-261300-
CENTRAL OKLAHOMA

CITY           SKY/WX    TMP DP  RH WIND       PRES   REMARKS
OKLAHOMA CITY  CLEAR     30  24  78 SE3       30.13F
6HR MIN TEMP:  29; 6HR MAX TEMP:  39;

OKC/WILEY POST CLEAR     29  26  89 S6        30.14F WCI  23
OKC/TINKER AFB CLEAR     31  26  83 S5        30.13F WCI  26
STILLWATER     CLEAR     27  24  89 CALM      30.13F
GUTHRIE        CLEAR     30  26  85 S6        30.12F WCI  24
$$

OKZ008-013-054>072-261300-
NORTHEAST OKLAHOMA

CITY           SKY/WX    TMP DP  RH WIND       PRES   REMARKS
TULSA          CLEAR     31  28  89 W5        30.15S WCI  26
6HR MIN TEMP:  26; 6HR MAX TEMP:  36;

TULSA/JONES    CLEAR     25  22  88 CALM      30.17S
PONCA CITY     CLEAR     26  21  81 CALM      30.12F
BARTLESVILLE   PTCLDY    28  26  92 W6        30.15S WCI  22
MUSKOGEE       CLEAR     29  26  89 W7        30.18S WCI  22
$$

OKZ032-040>043-046>053-073>077-261300-
SOUTH CENTRAL/SOUTHEAST OKLAHOMA

CITY           SKY/WX    TMP DP  RH WIND       PRES   REMARKS
ARDMORE/DWNTWN PTCLDY    32  28  86 CALM      30.18F
MCALESTER      CLEAR     25  23  92 CALM      30.17F FOG
$$



USA.gov is the U.S. government's official web portal to all federal, state and local government web resources and services.